Location: Cucq
(50.4773°N, 1.6202°E)
Time: 16:53:30
(UTC+00:00)

Meteor 1-28 Rocket - Pass Details

Date: 07 August 2020
Orbit: 502 x 524 km, 97.3° (Epoch: 25 September)

Event Time Altitude Azimuth Distance (km) Brightness Sun altitude
Exits shadow 02:36:10 11° 163° (SSE) 1,679 5.5 -14.9°
Maximum altitude 02:39:47 83° 77° (ENE) 533 3.2 -14.5°
Drops below altitude 10° 02:43:37 10° 348° (NNW) 1,775 6.4 -14.1°
Sets 02:45:44 0° 348° (NNW) 2,670 7.4 -13.9°
